Change the Weather History Date:

Saturday, November 9, 2013

  Actual Average Record
Temperature  
Mean Temperature 52 °F -  
Max Temperature 60 °F 55 °F 73 °F (1999)
Min Temperature 44 °F 38 °F 19 °F (2003)
Degree Days  
Heating Degree Days 12    
Growing Degree Days 2 (Base 50)    
Moisture  
Dew Point 33 °F    
Average Humidity 51    
Maximum Humidity 62    
Minimum Humidity 39    
Precipitation  
Precipitation 0.00 in - - ()
Sea Level Pressure  
Sea Level Pressure 29.99 in    
Wind  
Wind Speed 15 mph (WSW)    
Max Wind Speed 26 mph    
Max Gust Speed 40 mph    
Visibility 12 miles    
Events      
Averages and records for this station are not official NWS values.
T = Trace of Precipitation, MM = Missing Value Source: NWS Daily Summary

Daily Weather History Graph

Daily Weather History Graph

Search for Another Location

Airport or City:

Trip Planner

Search our weather history database for the weather conditions in past years. The results will help you decide how hot, cold, wet, or windy it might be!

Date:

Astronomy

Nov. 09, 2013 Rise Set
Actual Time 6:31 AM CST 4:34 PM CST
Civil Twilight 6:02 AM CST 5:04 PM CST
Nautical Twilight 5:28 AM CST 5:37 PM CST
Astronomical Twilight 4:56 AM CST 6:10 PM CST
Moon 12:07 PM CST (11/9) 11:05 PM CST (11/9)
Length of Visible Light 11h 02m
Length of Day
10h 03m
Waxing Crescent, 44% of the Moon is Illuminated
Nov 9
Waxing Crescent
Nov 9
First Quarter
Nov 17
Full
Nov 25
Last Quarter
Dec 2
New

Hourly Weather History & Observations

Time (CST) Temp. Windchill Dew Point Humidity Pressure Visibility Wind Dir Wind Speed Gust Speed Precip Events Conditions
12:15 AM 47.8 °F - 28.4 °F 47% 30.00 in 10.0 mi South 15.0 mph 20.7 mph N/A   Scattered Clouds
12:35 AM 47.7 °F - 28.9 °F 48% 29.99 in 10.0 mi South 13.8 mph 21.9 mph N/A   Mostly Cloudy
12:55 AM 47.8 °F - 29.1 °F 48% 29.97 in 10.0 mi South 12.7 mph 19.6 mph N/A   Scattered Clouds
1:15 AM 48.4 °F - 29.3 °F 48% 29.97 in 10.0 mi South 16.1 mph 23.0 mph N/A   Clear
1:35 AM 49.3 °F - 29.3 °F 46% 29.95 in 10.0 mi South 13.8 mph 25.3 mph N/A   Clear
1:55 AM 49.5 °F - 29.8 °F 47% 29.94 in 10.0 mi South 13.8 mph 25.3 mph N/A   Clear
2:15 AM 49.1 °F - 30.2 °F 48% 29.93 in 10.0 mi South 15.0 mph 27.6 mph N/A   Clear
2:35 AM 48.7 °F - 30.7 °F 50% 29.92 in 10.0 mi SSW 12.7 mph 23.0 mph N/A   Clear
2:55 AM 48.2 °F - 31.3 °F 52% 29.92 in 10.0 mi SSW 10.4 mph 19.6 mph N/A   Clear
3:15 AM 48.2 °F - 31.8 °F 53% 29.91 in 10.0 mi SSW 10.4 mph 19.6 mph N/A   Clear
3:35 AM 48.4 °F - 32.0 °F 53% 29.90 in 10.0 mi SSW 9.2 mph 26.5 mph N/A   Clear
4:45 AM 48.2 °F - 32.0 °F 54% 29.90 in 10.0 mi SSW 11.5 mph 27.6 mph N/A   Scattered Clouds
5:45 AM 46.4 °F 41.1 °F 33.8 °F 62% 29.90 in 10.0 mi SSW 11.5 mph 27.6 mph N/A   Scattered Clouds
6:45 AM 46.4 °F 41.1 °F 33.8 °F 62% 29.91 in 10.0 mi SSW 11.5 mph 23.0 mph N/A   Scattered Clouds
7:45 AM 48.2 °F - 35.6 °F 62% 29.92 in 20.0 mi SW 17.3 mph 31.1 mph N/A   Scattered Clouds
8:45 AM 50.0 °F - 37.4 °F 62% 29.91 in 20.0 mi SSW 17.3 mph 26.5 mph N/A   Partly Cloudy
9:45 AM 53.6 °F - 37.4 °F 54% 29.91 in 20.0 mi SW 20.7 mph 35.7 mph N/A   Partly Cloudy
10:45 AM 57.2 °F - 37.4 °F 48% 29.91 in 20.0 mi WSW 23.0 mph 34.5 mph N/A   Clear
11:45 AM 59.0 °F - 37.4 °F 45% 29.91 in 20.0 mi WSW 26.5 mph 38.0 mph N/A   Partly Cloudy
12:45 PM 60.8 °F - 37.4 °F 42% 29.90 in 20.0 mi West 23.0 mph 40.3 mph N/A   Scattered Clouds
1:45 PM 60.8 °F - 35.6 °F 39% 29.90 in 20.0 mi West 23.0 mph 39.1 mph N/A   Scattered Clouds
2:45 PM 59.0 °F - 35.6 °F 42% 29.92 in 20.0 mi WSW 15.0 mph 21.9 mph N/A   Scattered Clouds
3:45 PM 59.0 °F - 35.6 °F 42% 29.95 in 20.0 mi WSW 15.0 mph 25.3 mph N/A   Partly Cloudy
4:45 PM 57.2 °F - 35.6 °F 44% 29.96 in 20.0 mi WSW 13.8 mph 20.7 mph N/A   Partly Cloudy
5:45 PM 55.4 °F - 37.4 °F 51% 29.99 in 10.0 mi West 11.5 mph 21.9 mph N/A   Partly Cloudy
6:45 PM 53.6 °F - 37.4 °F 54% 30.02 in 10.0 mi West 13.8 mph 23.0 mph N/A   Clear
7:45 PM 51.8 °F - 35.6 °F 54% 30.04 in 10.0 mi West 15.0 mph 24.2 mph N/A   Clear
8:35 PM 50.4 °F - 36.5 °F 59% 30.05 in 10.0 mi West 10.4 mph - N/A   Scattered Clouds
8:45 PM 50.0 °F - 35.6 °F 58% 30.05 in 10.0 mi West 12.7 mph - N/A   Clear
8:55 PM 50.2 °F - 36.1 °F 59% 30.05 in 10.0 mi West 12.7 mph 17.3 mph N/A   Clear
9:15 PM 50.0 °F - 35.6 °F 58% 30.06 in 10.0 mi West 10.4 mph 21.9 mph N/A   Clear
9:35 PM 49.3 °F - 35.6 °F 59% 30.07 in 10.0 mi West 12.7 mph 17.3 mph N/A   Scattered Clouds
9:45 PM 50.0 °F - 35.6 °F 58% 30.07 in 10.0 mi WNW 15.0 mph - N/A   Mostly Cloudy
9:55 PM 49.5 °F - 35.1 °F 58% 30.08 in 10.0 mi West 12.7 mph 21.9 mph N/A   Mostly Cloudy
10:15 PM 49.5 °F - 34.2 °F 56% 30.09 in 10.0 mi West 16.1 mph 27.6 mph N/A   Overcast
10:35 PM 48.2 °F - 28.8 °F 47% 30.10 in 10.0 mi West 26.5 mph 35.7 mph N/A   Scattered Clouds
10:55 PM 47.3 °F - 27.3 °F 46% 30.10 in 10.0 mi West 21.9 mph 39.1 mph N/A   Clear
11:15 PM 46.4 °F 40.1 °F 26.2 °F 45% 30.11 in 10.0 mi West 15.0 mph 31.1 mph N/A   Clear
11:35 PM 45.5 °F 38.9 °F 25.9 °F 46% 30.12 in 10.0 mi WNW 15.0 mph 28.8 mph N/A   Clear
11:55 PM 44.6 °F 37.4 °F 23.2 °F 43% 30.12 in 10.0 mi WNW 16.1 mph 28.8 mph N/A   Clear